Location: Helds Island Access
(38.5526°N, 91.5997°W)
Time: 14:22:13
(UTC-05:00)

Daily predictions for brighter satellites

Satellite Brightness Start Highest point End
(mag) Time Altitude Azimuth Time Altitude Azimuth Time Altitude Azimuth
Cosmos 2056 Rocket 3.8 20:57:57 10° NNW 21:03:06 73° WSW 21:08:18 10° S
Cosmos 2058 Rocket 4.5 21:00:19 10° NNW 21:04:29 40° W 21:08:33 10° SSW
Cosmos 2279 Rocket 4.3 20:58:23 10° SSW 21:04:33 73° W 21:10:44 10° N
Hubble Space Telescope 3.0 21:07:14 10° SW 21:09:11 13° SSW 21:11:09 10° SSE
H-2A R/B 3.1 21:12:15 10° SE 21:16:48 31° ENE 21:21:28 10° N
Cosmos 1943 3.4 21:17:15 10° NNW 21:22:55 77° WSW 21:28:32 10° SSE
Cosmos 1400 Rocket 2.8 21:20:50 10° S 21:24:53 89° WNW 21:28:54 10° N
Cosmos 1825 Rocket 3.9 21:20:49 10° SSE 21:25:06 48° E 21:29:24 10° NNE
Aureole 1 Rocket 2.5 21:23:12 10° S 21:26:09 49° ESE 21:29:36 10° NNE
Cosmos 2285 Rocket 4.3 21:23:28 10° S 21:29:27 46° ESE 21:35:26 10° NNE
ERS-2 2.5 21:26:13 10° S 21:29:51 63° WSW 21:33:30 10° NNW
Cosmos 1726 4.4 21:34:42 10° ENE 21:35:32 11° ENE 21:36:22 10° E
ATLAS 3B R/B 4.3 21:31:57 10° N 21:36:56 22° NE 21:41:50 10° E
Cosmos 1346 Rocket 4.1 21:34:03 10° NNE 21:37:23 25° ENE 21:39:41 16° ESE
ARGOS 3.3 21:32:46 11° SSE 21:37:54 60° ENE 21:43:15 10° N
Cosmos 1470 4.2 21:36:56 10° NNW 21:40:32 37° W 21:44:09 10° SSW
Cosmos 2266 Rocket 4.1 21:37:37 10° N 21:44:03 85° W 21:50:22 10° S
Cosmos 1844 4.4 21:39:43 10° SSE 21:44:40 32° ESE 21:49:41 10° NE
Cosmos 1844 Rocket 3.0 21:42:38 10° S 21:47:59 45° ESE 21:53:22 10° NE
Meteor 1-24 Rocket 4.0 21:43:41 10° S 21:49:34 60° E 21:55:30 10° NNE
MetOp-A 4.1 21:45:48 13° SSE 21:50:34 75° ENE 21:55:56 10° N
Meteor 2-5 Rocket 4.1 21:53:27 10° SSW 21:59:23 75° W 22:05:20 10° N
ATLAS 2AS CENTAUR R/B 3.0 21:52:04 10° SSW 21:59:41 68° ESE 22:07:44 10° NE
SPOT 5 3.8 21:59:19 20° SE 22:02:13 37° ENE 22:07:00 10° N
Centaur D-1A AC-35 4.1 22:02:05 10° SSW 22:03:10 12° S 22:03:10 12° S
BREEZE-M R/B 4.0 22:06:34 10° W 22:08:23 15° SW 22:09:06 14° SSW
Lacrosse 5 2.2 22:04:50 10° SW 22:09:52 67° NW 22:14:55 10° NE
ERS-1 Rocket 3.0 22:06:47 22° SSE 22:10:03 70° ENE 22:15:05 10° N
Cosmos 1238 Rocket 2.3 22:08:13 18° SSW 22:10:14 67° W 22:13:12 10° N
Iridium 4 Rocket 4.2 22:06:55 10° SSW 22:12:33 59° W 22:17:52 10° N
Cosmos 1553 Rocket 4.2 22:09:11 20° SSE 22:13:15 51° E 22:19:06 10° NNE
Cosmos 1908 3.6 22:10:12 10° N 22:13:55 45° E 22:15:12 32° SE
Cosmos-2242 3.0 22:12:10 10° N 22:16:35 80° E 22:18:55 27° SSE
Meteor 1-29 4.4 22:22:01 10° NE 22:24:13 22° E 22:24:13 22° E
Cosmos 2084 3.3 22:22:20 10° NNW 22:26:09 65° NE 22:27:20 40° ESE
SL-8 R/B 3.7 22:24:34 10° WSW 22:29:24 86° NNW 22:34:16 10° ENE
OAO 3 Rocket 3.3 22:25:39 10° WSW 22:30:31 58° S 22:32:33 32° ESE
Resurs 01 Rocket 4.4 22:30:34 10° WSW 22:31:52 11° W 22:33:10 10° WNW
Cosmos 1626 4.4 22:35:20 13° ENE 22:35:20 13° ENE 22:36:30 10° NE
CZ-2C R/B 3.7 22:30:52 10° NE 22:35:16 25° E 22:35:50 24° ESE
Cosmos 1340 3.1 22:31:43 10° N 22:35:22 45° ENE 22:35:53 42° ESE
NOSS 3-4 (A) 4.0 22:35:39 31° SE 22:37:11 35° ESE 22:42:49 10° NE
NOSS 3-4 (C) 4.0 22:35:49 31° SE 22:37:16 35° ESE 22:42:54 10° NE
Helios 1A 2.9 22:36:24 42° SSE 22:37:45 79° ENE 22:41:58 10° N
Cosmos 1674 3.4 22:43:16 25° SW 22:45:13 51° W 22:48:58 10° N
Cosmos 1300 3.6 22:43:28 10° NNE 22:46:58 33° ENE 22:46:59 33° E
Landsat 7 3.7 22:50:31 43° SSE 22:52:05 90° E 22:56:52 10° NNW
Meteor 1-21 Rocket 4.3 22:49:44 34° S 22:52:21 70° E 22:58:09 10° NNE
Helios 1B rocket 2.3 22:49:15 10° NNE 22:53:22 87° E 22:54:22 51° S
SPOT 1/Viking Rocket 3.6 22:53:26 35° S 22:55:33 70° WSW 23:00:42 10° NNW
H-2A R/B 3.5 22:52:29 15° SSW 22:56:07 31° W 23:00:51 10° NW
Cosmos 1110 Rocket 4.1 22:55:59 10° NNW 23:01:06 65° WSW 23:02:49 41° S
APEX 3.7 23:00:31 10° N 23:03:12 41° NE 23:03:12 41° NE
Cosmos 2221 2.8 23:01:43 10° N 23:05:56 48° E 23:06:07 48° E
Cosmos 2278 Rocket 2.1 23:05:20 43° S 23:07:08 67° ESE 23:12:47 10° NNE
Cosmos 1745 Rocket 4.0 23:03:17 10° N 23:09:37 80° W 23:12:13 38° S
Cosmos 1726 2.9 23:07:27 10° NNW 23:11:02 43° W 23:11:29 41° WSW
SL-14 R/B 3.1 23:11:02 84° SW 23:11:08 86° WNW 23:15:03 10° N
Terra 1.7 23:10:28 57° SSE 23:11:27 89° WSW 23:16:13 10° NNW
Cosmos 921 Rocket 4.1 23:08:38 10° NNW 23:12:47 38° W 23:13:56 32° SW
Cosmos 1331 Rocket 4.4 23:11:21 10° NNW 23:16:25 53° WSW 23:17:51 40° SSW
Spot 1 4.0 23:17:05 65° SSW 23:17:35 74° WSW 23:22:05 10° NNW
COSMOS 2406 3.3 23:12:13 10° NNW 23:17:56 68° WSW 23:19:32 47° S
TELKOM 3 4.4 23:13:26 10° WNW 23:19:12 74° SW 23:19:20 73° SSW
USA 238 DEB 3.9 23:17:58 10° NW 23:25:05 69° WSW 23:27:33 43° S
USA 238 3.9 23:18:04 10° NW 23:25:11 69° WSW 23:27:39 43° S
BREEZE-M DEB (TANK) 3.8 23:14:58 10° SW 23:25:18 68° SE 23:29:14 10° ENE
ATLAS 3B R/B 2.5 23:21:46 10° NW 23:28:25 84° WSW 23:30:17 50° SSE
CARTOSAT-1 4.3 23:30:14 41° WSW 23:30:43 43° W 23:34:51 10° NNW
Spot 4 4.1 23:30:38 51° E 23:31:02 53° ENE 23:35:47 10° N
NOSS 2-2 (C) 4.5 23:34:49 34° NE 23:34:49 34° NE 23:37:24 10° NE
CZ-2C R/B 3.5 23:34:52 48° SSW 23:36:23 66° W 23:42:11 10° NNW
NOSS 3-2 (A) 4.0 23:31:05 10° NW 23:38:48 86° WSW 23:41:45 45° SSE
Cosmos 1461 3.4 23:39:29 52° WSW 23:40:25 66° WNW 23:45:11 10° NNE
YAOGAN 11 4.4 23:40:45 58° WSW 23:40:58 59° W 23:45:30 10° NNW
ALOS 2 4.4 23:41:19 20° ENE 23:41:21 20° ENE 23:44:34 10° NNE
Cosmos 2251 Rocket 4.4 23:40:03 24° SW 23:42:52 45° WNW 23:47:59 10° N
Cosmos 1302 Rocket 4.3 23:37:48 10° NNW 23:42:59 56° WSW 23:43:39 52° SW
Cosmos 1709 Rocket 3.9 23:37:01 10° N 23:43:16 87° W 23:44:40 57° S
RESURS DK-1 3.9 23:48:17 27° NE 23:48:17 27° NE 23:50:28 10° NE
Cosmos 2297 3.9 23:47:59 54° ESE 23:47:59 54° ESE 23:53:26 10° NNE
ATLAS 3B CENTAUR R/B 4.3 23:40:26 10° SW 23:48:46 28° SSW 23:48:46 28° SSW
EO 1 Delta rocket 4.4 23:45:23 10° N 23:52:13 83° W 23:53:26 58° SSW
Cosmos 1766 Rocket 3.9 23:54:48 57° NE 23:54:48 57° NE 23:58:34 10° NNE
ATLAS 5 CENTAUR R/B 1.7 23:54:46 76° NNE 23:54:46 76° NNE 23:59:16 10° NNE
Cosmos 1408 Rocket 4.2 23:56:20 47° NE 23:56:20 47° NE 23:59:52 10° NNE
